EDT,Max TemperatureF,Mean TemperatureF,Min TemperatureF,Max Dew PointF,MeanDew PointF,Min DewpointF,Max Humidity, Mean Humidity, Min Humidity, Max Sea Level PressureIn, Mean Sea Level PressureIn, Min Sea Level PressureIn, Max VisibilityMiles, Mean VisibilityMiles, Min VisibilityMiles, Max Wind SpeedMPH, Mean Wind SpeedMPH, Max Gust SpeedMPH,PrecipitationIn, CloudCover, Events, WindDirDegrees
2012-10-1,64,53,42,55,48,43,100,84,52,29.98,29.93,29.88,10,6,0,7,1,,0.00,,,114
2012-10-2,71,64,57,70,62,55,100,95,83,29.94,29.89,29.85,10,10,4,12,7,17,0.37,,,142
2012-10-3,71,66,60,68,65,61,100,95,78,30.18,30.07,29.94,10,10,7,10,4,,0.00,,,237
2012-10-4,71,63,55,63,58,52,100,86,53,30.22,30.18,30.16,10,8,1,14,2,21,0.00,,,270
2012-10-5,73,63,53,63,58,54,100,88,64,30.16,30.08,29.92,10,10,7,13,3,21,0.00,,,250
2012-10-6,62,52,42,61,46,37,100,81,51,30.10,29.97,29.83,10,9,2,15,5,22,0.22,,,295
2012-10-7,48,42,35,43,41,36,100,95,76,30.18,30.10,30.05,10,10,2,12,1,17,0.02,,,290
2012-10-8,48,40,33,43,39,34,100,91,71,30.27,30.22,30.17,10,7,0,6,1,,0.00,,,168
2012-10-9,60,50,39,46,42,37,100,81,55,30.20,30.13,30.03,10,10,10,8,2,,0.00,,,216
2012-10-10,53,48,42,50,44,36,100,88,62,30.13,29.98,29.92,10,10,4,17,5,25,0.02,,,272
2012-10-11,53,42,32,37,34,32,100,76,47,30.29,30.20,30.14,10,10,10,16,6,21,0.00,,,258
2012-10-12,53,42,30,43,35,28,100,79,44,30.44,30.28,30.14,10,10,5,14,2,22,0.00,,,340
2012-10-13,62,45,28,45,35,27,100,64,48,30.42,30.31,30.10,10,10,10,14,5,18,0.00,,,159
2012-10-14,75,66,57,57,53,45,72,63,53,30.11,29.98,29.77,10,10,10,17,7,25,0.00,,,223
2012-10-15,69,58,46,61,52,46,100,86,56,29.87,29.78,29.68,10,10,3,17,11,28,0.09,,,275
2012-10-16,53,46,37,46,43,37,100,89,62,29.97,29.92,29.87,10,10,10,10,6,16,0.00,,,290
2012-10-17,69,52,35,45,40,36,100,69,28,29.95,29.89,29.83,10,10,10,9,2,,0.00,,,165
2012-10-18,66,56,46,52,48,45,100,76,52,29.88,29.78,29.71,10,10,2,16,8,24,0.62,,,158
2012-10-19,66,55,44,52,44,37,100,72,37,29.81,29.71,29.62,10,10,10,18,4,25,0.00,,,208
2012-10-20,51,48,44,46,44,43,100,87,71,29.92,29.79,29.71,10,10,2,18,11,24,0.03,,,255
2012-10-21,55,46,37,48,41,37,100,87,54,30.15,30.08,29.93,10,9,4,10,4,16,0.00,,,262
2012-10-22,68,50,33,52,44,34,100,82,52,30.21,30.16,30.10,10,10,7,9,1,,0.00,,,251
2012-10-23,71,61,51,59,54,50,100,77,50,30.12,30.08,30.04,10,10,5,14,2,20,0.16,,,253
2012-10-24,71,62,53,57,55,52,100,82,57,30.17,30.13,30.09,10,10,10,12,2,,0.00,,,250
2012-10-25,80,64,48,59,54,48,100,73,37,30.16,30.11,30.06,10,10,7,10,3,17,0.00,,,177
2012-10-26,75,66,57,59,57,54,94,78,50,30.14,30.08,30.02,10,9,7,13,7,20,0.00,,,171
2012-10-27,57,56,55,55,55,55,100,95,94,30.04,30.02,30.01,10,10,10,4,1,,0.00,,,40
2012-10-28,,,,,,,,,,,,,,,,,,,,,,
2012-10-29,42,42,41,43,43,41,100,100,100,29.54,29.49,29.43,10,7,4,16,11,25,0.47,,,338
2012-10-30,46,39,32,46,38,32,100,100,93,29.38,29.17,28.88,10,7,2,15,7,21,0.46,,,131
2012-10-31,37,35,33,37,36,34,100,100,100,29.62,29.49,29.38,10,5,1,14,7,21,0.43,,,243